Weather in Cheonan

South Korea     36°48′48″N   127°08′11″E
temp.,
°C
wind,
m/s
gust,
m/s
humid.,
%
clouds,
%
prec.,
mm/h
press.,
hPa
HPBL,
m
17 june, thu
thu1700:00+17ese1190100 0.0 100713
03:00+16e229199 0.0 100744
06:00+17ese1290100 0.0 100773
09:00+19se2581100 0.0 1007321
12:00+23se3368100 0.0 1006905
15:00+22s2480100 0.1 1005201
18:00+20ssw1289100 0.1 100554
21:00+19ssw1191100 0.1 100512
18 june, fri
fri1800:00+18s2297100 0.5 100547
03:00+18ssw1197100 0.7 100431
06:00+18ssw1197100 0.1 100330
09:00+19s1195100 0.3 1004203
12:00+19s2295100 0.6 1003236
15:00+20ssw2490100 0.6 1001535
18:00+22w2383100 0.3 1001707
21:00+19w229126 0.4 100127
19 june, sat
sat1900:00+17w119730 0.0 100211
03:00+18wnw1190100 0.0 100122
06:00+18sw118735 0.1 100219
09:00+22wsw01670 0.1 1002586
12:00+26wnw234512 0.0 10011212
15:00+28wnw3440100 0.0 10001565
18:00+25wnw35536 0.0 1000196
21:00+19w1164100 0.0 100211
20 june, sun
sun2000:00+17s1170100 0.0 100211
03:00+15se218150 0.0 100211
06:00+15se1186100 0.0 100211
09:00+22sse2266100 0.0 1003357
12:00+28s354179 0.0 1001946
15:00+28wsw4746100 0.0 1000584
18:00+25ssw4105769 0.0 1000384
21:00+20wsw117496 0.0 100211
21 june, mon
mon2100:00+17s22908 0.0 100311
03:00+16sse11963 0.6 100311
06:00+16se11956 0.3 100419
09:00+22se1173100 0.3 1004441
12:00+27s245271 0.1 10031549
15:00+28sw694699 0.2 10021725
18:00+24wnw2470100 0.0 1003124
21:00+19s228687 0.1 100421